Location: Calvatone
(45.1167°N, 10.4333°E)
Time: 13:45:49
(UTC+00:00)

CZ-4B R/B - Pass Details

Date: 28 January 2023
Orbit: 474 x 640 km, 97.9° (Epoch: 29 March)

Event Time Altitude Azimuth Distance (km) Brightness Sun altitude
Rises 17:02:33 0° 162° (SSE) 2,877 6.5 -7.9°
Reaches altitude 10° 17:04:46 10° 160° (SSE) 1,954 5.6 -8.2°
Maximum altitude 17:09:00 77° 76° (ENE) 607 2.9 -9.0°
Drops below altitude 10° 17:13:04 10° 350° (N) 1,869 5.5 -9.6°
Sets 17:15:09 0° 349° (N) 2,741 6.3 -10.0°
